Location: Betz
(49.1556°N, 2.9558°E)
Time: 06:15:53
(UTC+00:00)

SL-8 Rocket - Pass Details

Date: 18 September 2019
Orbit: 956 x 991 km, 82.9° (Epoch: 17 October)

Event Time Altitude Azimuth Distance (km) Brightness Sun altitude
Rises 18:56:43 0° 354° (N) 3,676 7.3 -10.7°
Reaches altitude 10° 18:59:26 10° 2° (N) 2,720 6.5 -11.1°
Maximum altitude 19:05:15 40° 72° (ENE) 1,382 4.4 -12.0°
Enters shadow 19:10:34 12° 139° (SE) 2,541 5.7 -12.9°
